TimeEST,TemperatureF,Dew PointF,Humidity,Sea Level PressureIn,VisibilityMPH,Wind Direction,Wind SpeedMPH,Gust SpeedMPH,PrecipitationIn,Events,Conditions,WindDirDegrees,DateUTC
12:53 AM,18.0,10.9,74,30.31,10.0,NE,11.5,-,N/A,,Mostly Cloudy,50,2013-03-01 05:53:00
1:53 AM,18.0,10.9,74,30.32,10.0,NE,9.2,-,N/A,,Overcast,50,2013-03-01 06:53:00
2:53 AM,17.6,12.2,79,30.27,10.0,ENE,8.1,-,N/A,,Overcast,60,2013-03-01 07:53:00
3:53 AM,17.1,10.9,77,30.34,10.0,NE,10.4,-,N/A,,Overcast,40,2013-03-01 08:53:00
5:53 AM,16.0,10.0,77,30.37,9.0,NNE,11.5,-,0.00,Snow,Light Snow,30,2013-03-01 10:53:00
6:53 AM,15.1,9.0,77,30.38,9.0,NE,10.4,-,0.00,,Overcast,50,2013-03-01 11:53:00
7:53 AM,15.1,9.0,77,30.40,9.0,NE,10.4,-,0.00,Snow,Light Snow,40,2013-03-01 12:53:00
8:53 AM,15.1,8.1,74,30.40,10.0,NE,6.9,-,N/A,,Mostly Cloudy,50,2013-03-01 13:53:00
9:09 AM,15.8,8.6,73,30.34,10.0,NE,8.1,-,N/A,,Scattered Clouds,50,2013-03-01 14:09:00
9:53 AM,17.1,8.1,68,30.40,10.0,NE,10.4,-,N/A,,Partly Cloudy,40,2013-03-01 14:53:00
10:53 AM,19.0,7.0,59,30.41,10.0,NE,11.5,-,N/A,,Clear,50,2013-03-01 15:53:00
11:53 AM,19.9,7.0,57,30.42,10.0,NNE,10.4,-,N/A,,Clear,20,2013-03-01 16:53:00
12:53 PM,19.4,8.6,63,30.35,10.0,NNE,12.7,-,N/A,,Clear,20,2013-03-01 17:53:00
1:53 PM,21.0,9.0,60,30.40,10.0,North,8.1,17.3,N/A,,Clear,10,2013-03-01 18:53:00
2:53 PM,19.9,8.1,60,30.40,10.0,North,9.2,18.4,N/A,,Clear,10,2013-03-01 19:53:00
3:53 PM,19.0,8.1,62,30.40,10.0,North,11.5,-,N/A,,Clear,10,2013-03-01 20:53:00
4:53 PM,18.0,7.0,62,30.40,10.0,NNE,13.8,-,N/A,,Clear,20,2013-03-01 21:53:00
5:53 PM,18.0,7.0,62,30.41,10.0,NNE,12.7,-,N/A,,Clear,30,2013-03-01 22:53:00
6:53 PM,16.0,6.1,65,30.41,10.0,NNE,6.9,-,N/A,,Clear,30,2013-03-01 23:53:00
7:53 PM,12.0,3.9,70,30.40,10.0,NNW,4.6,-,N/A,,Clear,330,2013-03-02 00:53:00
8:53 PM,14.0,6.8,73,30.33,10.0,North,5.8,-,N/A,,Clear,10,2013-03-02 01:53:00
9:53 PM,15.1,7.0,70,30.39,10.0,NNE,5.8,-,N/A,,Clear,20,2013-03-02 02:53:00
10:53 PM,12.9,6.1,74,30.37,10.0,Calm,Calm,-,N/A,,Clear,0,2013-03-02 03:53:00
11:53 PM,12.9,5.0,71,30.37,10.0,North,4.6,-,N/A,,Clear,360,2013-03-02 04:53:00